FW6720 Weather Reports


Display with metric or nautical units.
time (UTC)temp
F
wind
direction
speed
MPH
gust
MPH
rain 1hr
in
rain 24hr
in
rain mn
in
humidity
%
barometer
mb
20260504231306 77 27 0.0 0.0 0.00 0.00 0.00 54 1012.7
20260504230802 76 29 0.0 0.0 0.00 0.00 0.00 56 1012.7
20260504230300 75 28 0.0 1.0 0.00 0.00 0.00 55 1012.8
20260504225759 76 29 0.0 0.0 0.00 0.00 0.00 55 1012.8
20260504225255 75 29 0.0 0.0 0.00 0.00 0.00 55 1013.0
20260504224752 74 24 0.0 0.0 0.00 0.00 0.00 58 1013.0
20260504224249 75 27 0.0 0.0 0.00 0.00 0.00 58 1013.1
20260504223745 75 21 0.0 0.0 0.00 0.00 0.00 56 1012.9
20260504223241 75 22 0.0 1.0 0.00 0.00 0.00 56 1013.1
20260504222738 76 28 0.0 1.0 0.00 0.00 0.00 54 1012.9
20260504222235 76 30 0.0 0.0 0.00 0.00 0.00 55 1013.0
20260504221733 76 57 0.0 0.0 0.00 0.00 0.00 54 1013.1
20260504221229 77 31 0.0 0.0 0.00 0.00 0.00 53 1013.2
20260504220726 76 29 0.0 0.0 0.00 0.00 0.00 54 1013.2
20260504220223 75 27 0.0 0.0 0.00 0.00 0.00 58 1013.5
20260504215720 76 26 0.0 0.0 0.00 0.00 0.00 54 1013.3
20260504215217 75 26 0.0 0.0 0.00 0.00 0.00 55 1013.4
20260504214713 75 27 0.0 0.0 0.00 0.00 0.00 55 1013.5
20260504214210 76 24 0.0 1.0 0.00 0.00 0.00 54 1013.4
20260504213706 75 25 0.0 0.0 0.00 0.00 0.00 55 1013.2
20260504213203 75 27 0.0 1.0 0.00 0.00 0.00 58 1013.7
20260504212700 75 24 0.0 0.0 0.00 0.00 0.00 55 1013.5
20260504212156 75 24 0.0 0.0 0.00 0.00 0.00 56 1013.5
20260504211654 75 24 0.0 1.0 0.00 0.00 0.00 58 1013.7
20260504211150 74 23 0.0 0.0 0.00 0.00 0.00 57 1013.9
20260504210648 75 23 0.0 1.0 0.00 0.00 0.00 54 1013.9
20260504210144 73 70 0.0 0.0 0.00 0.00 0.00 56 1014.1
20260504205642 74 24 0.0 0.0 0.00 0.00 0.00 58 1014.1
20260504205138 73 22 0.0 0.0 0.00 0.00 0.00 58 1014.1
20260504204637 73 23 0.0 0.0 0.00 0.00 0.00 57 1014.2
20260504204136 73 23 0.0 0.0 0.00 0.00 0.00 58 1014.1
20260504203634 72 22 0.0 0.0 0.00 0.00 0.00 57 1014.3
20260504203131 72 23 0.0 0.0 0.00 0.00 0.00 59 1014.4
20260504202626 72 23 0.0 0.0 0.00 0.00 0.00 59 1014.4
20260504202123 71 23 0.0 0.0 0.00 0.00 0.00 61 1014.4
20260504201620 71 23 0.0 0.0 0.00 0.00 0.00 62 1014.5
20260504201118 71 20 0.0 0.0 0.00 0.00 0.00 61 1014.6
20260504200615 71 121 0.0 0.0 0.00 0.00 0.00 61 1014.6
20260504200111 71 121 0.0 0.0 0.00 0.00 0.00 59 1014.5
20260504195607 71 17 0.0 0.0 0.00 0.00 0.00 60 1014.7
20260504195103 71 31 0.0 0.0 0.00 0.00 0.00 59 1014.6
20260504194600 71 150 0.0 0.0 0.00 0.00 0.00 60 1014.4
20260504194055 71 63 1.0 2.0 0.00 0.00 0.00 60 1014.9
20260504193552 70 14 0.0 0.0 0.00 0.00 0.00 60 1014.6
20260504193051 69 31 0.0 0.0 0.00 0.00 0.00 63 1014.6
20260504192549 69 151 0.0 0.0 0.00 0.00 0.00 63 1014.8
20260504192047 68 152 0.0 0.0 0.00 0.00 0.00 62 1014.8
20260504191544 68 66 0.0 0.0 0.00 0.00 0.00 63 1014.9
20260504191040 68 60 0.0 0.0 0.00 0.00 0.00 62 1014.7
20260504190537 68 57 0.0 0.0 0.00 0.00 0.00 62 1015.1
20260504190033 68 49 0.0 0.0 0.00 0.00 0.00 63 1015.0
20260504185530 68 23 0.0 0.0 0.00 0.00 0.00 63 1014.8
20260504185026 68 142 0.0 0.0 0.00 0.00 0.00 62 1014.9
20260504184522 68 18 0.0 0.0 0.00 0.00 0.00 64 1014.6
20260504184018 67 60 0.0 0.0 0.00 0.00 0.00 64 1014.9
20260504183515 67 101 0.0 0.0 0.00 0.00 0.00 65 1014.9
20260504183013 66 75 0.0 0.0 0.00 0.00 0.00 64 1014.9
20260504182509 67 75 0.0 0.0 0.00 0.00 0.00 64 1014.8
20260504182007 67 72 0.0 0.0 0.00 0.00 0.00 65 1015.1
20260504181504 66 25 0.0 0.0 0.00 0.00 0.00 66 1015.0
20260504181003 67 26 0.0 1.0 0.00 0.00 0.00 64 1014.9
20260504180501 66 26 0.0 0.0 0.00 0.00 0.00 67 1014.7
20260504175959 66 25 0.0 0.0 0.00 0.00 0.00 66 1015.0
20260504175456 65 26 0.0 0.0 0.00 0.00 0.00 68 1014.8
20260504174953 65 33 0.0 0.0 0.00 0.00 0.00 66 1015.1
20260504174450 65 54 0.0 0.0 0.00 0.00 0.00 66 1014.8
20260504173948 65 51 0.0 0.0 0.00 0.00 0.00 68 1015.2
20260504173444 65 47 0.0 0.0 0.00 0.00 0.00 66 1014.7
20260504172942 64 49 0.0 0.0 0.00 0.00 0.00 68 1014.9
20260504172437 64 31 0.0 0.0 0.00 0.00 0.00 68 1015.0
20260504171934 65 46 0.0 0.0 0.00 0.00 0.00 67 1014.8
20260504171431 65 46 0.0 0.0 0.00 0.00 0.00 67 1014.8
20260504170928 64 46 0.0 0.0 0.00 0.00 0.00 68 1014.8
20260504170424 64 46 0.0 0.0 0.00 0.00 0.00 67 1014.6
20260504160343 61 38 0.0 0.0 0.00 0.00 0.00 70 1015.0
20260504150808 55 32 0.0 0.0 0.00 0.00 0.00 82 1014.6
20260504150305 55 32 0.0 0.0 0.00 0.00 0.00 82 1014.6
20260504141235 52 32 0.0 0.0 0.00 0.00 0.00 86 1014.3
20260504140731 52 32 0.0 0.0 0.00 0.00 0.00 86 1014.5
20260504140227 52 32 0.0 0.0 0.00 0.00 0.00 86 1014.5
20260504130656 53 33 0.0 0.0 0.00 0.00 0.00 84 1013.5
20260504130152 53 34 0.0 0.0 0.00 0.00 0.00 83 1013.5
20260504120116 54 34 0.0 0.0 0.00 0.00 0.00 82 1012.7
20260504110543 55 34 0.0 0.0 0.00 0.00 0.00 82 1012.0
20260504100505 54 34 0.0 0.0 0.00 0.00 0.00 84 1011.8
20260504081858 53 34 0.0 0.0 0.00 0.00 0.00 85 1011.4
20260504081355 53 34 0.0 0.0 0.00 0.00 0.00 85 1011.6
20260504080850 54 34 0.0 0.0 0.00 0.00 0.00 85 1011.6
20260504080348 54 34 0.0 0.0 0.00 0.00 0.00 85 1011.8
20260504070315 55 34 0.0 0.0 0.00 0.00 0.00 83 1011.5
20260504060236 57 34 0.0 0.0 0.00 0.00 0.00 80 1011.3
20260504050703 60 35 0.0 0.0 0.00 0.00 0.00 77 1011.3
20260504050200 60 35 0.0 0.0 0.00 0.00 0.00 76 1011.2
20260504045657 60 35 0.0 0.0 0.00 0.00 0.00 76 1010.9
20260504045152 60 35 0.0 0.0 0.00 0.00 0.00 76 1011.0
20260504044650 60 35 0.0 0.0 0.00 0.00 0.00 76 1011.0
20260504044146 61 35 0.0 0.0 0.00 0.00 0.00 76 1011.0
20260504043643 61 35 0.0 0.0 0.00 0.00 0.00 76 1010.7
20260504043141 61 35 0.0 0.0 0.00 0.00 0.00 75 1010.9
20260504042638 61 35 0.0 0.0 0.00 0.00 0.00 75 1010.9
20260504042134 62 35 0.0 0.0 0.00 0.00 0.00 74 1010.8
20260504041630 62 35 0.0 0.0 0.00 0.00 0.00 74 1010.9
20260504041127 62 35 0.0 0.0 0.00 0.00 0.00 74 1010.7
20260504040624 62 35 0.0 0.0 0.00 0.00 0.00 74 1010.6
20260504040121 63 35 0.0 0.0 0.00 0.00 0.00 74 1010.6
20260504035618 63 35 0.0 0.0 0.00 0.00 0.00 73 1010.3
20260504035114 64 35 0.0 0.0 0.00 0.00 0.00 73 1010.4
20260504034612 64 35 0.0 0.0 0.00 0.00 0.00 71 1010.5
20260504034108 64 35 0.0 0.0 0.00 0.00 0.00 70 1010.3
20260504033607 64 35 0.0 0.0 0.00 0.00 0.00 70 1010.2
20260504033104 65 35 0.0 0.0 0.00 0.00 0.00 70 1010.3
20260504032600 65 35 0.0 0.0 0.00 0.00 0.00 70 1010.3
20260504032057 66 34 0.0 0.0 0.00 0.00 0.00 68 1010.0
20260504031554 66 34 0.0 0.0 0.00 0.00 0.00 66 1010.0
20260504031050 66 34 0.0 0.0 0.00 0.00 0.00 67 1010.1
20260504030548 67 33 0.0 0.0 0.00 0.00 0.00 67 1010.0
20260504030044 67 33 0.0 0.0 0.00 0.00 0.00 67 1010.1
20260504025541 68 33 0.0 0.0 0.00 0.00 0.00 66 1009.9
20260504025038 68 33 0.0 0.0 0.00 0.00 0.00 65 1009.7
20260504024535 69 33 0.0 0.0 0.00 0.00 0.00 66 1009.8
20260504024032 69 33 0.0 0.0 0.00 0.00 0.00 63 1009.7
20260504023529 69 33 0.0 0.0 0.00 0.00 0.00 62 1009.8
20260504023024 70 33 0.0 0.0 0.00 0.00 0.00 62 1009.6
20260504022520 71 33 0.0 0.0 0.00 0.00 0.00 61 1009.7
20260504022017 71 33 0.0 0.0 0.00 0.00 0.00 60 1009.7
20260504021515 72 33 0.0 0.0 0.00 0.00 0.00 57 1009.6
20260504021012 72 33 0.0 0.0 0.00 0.00 0.00 56 1009.6
20260504020508 73 33 0.0 0.0 0.00 0.00 0.00 54 1009.8
20260504020005 73 33 0.0 0.0 0.00 0.00 0.00 53 1009.5
20260504015501 74 33 0.0 0.0 0.00 0.00 0.00 51 1009.7
20260504014957 74 33 0.0 0.0 0.00 0.00 0.00 50 1009.7
20260504014453 75 33 0.0 0.0 0.00 0.00 0.00 52 1009.7
20260504013950 76 33 0.0 0.0 0.00 0.00 0.00 52 1009.8
20260504013449 76 33 0.0 0.0 0.00 0.00 0.00 52 1009.7
20260504012944 77 33 0.0 0.0 0.00 0.00 0.00 50 1009.9
20260504012443 77 33 0.0 0.0 0.00 0.00 0.00 48 1009.7
20260504011940 78 34 0.0 0.0 0.00 0.00 0.00 46 1009.8
20260504011436 78 33 0.0 0.0 0.00 0.00 0.00 46 1009.8
20260504010932 80 33 0.0 0.0 0.00 0.00 0.00 43 1009.9
20260504010428 80 33 0.0 0.0 0.00 0.00 0.00 43 1009.9
20260504005925 80 33 0.0 0.0 0.00 0.00 0.00 44 1009.8
20260504005421 81 34 0.0 0.0 0.00 0.00 0.00 43 1010.1
20260504004919 81 34 0.0 0.0 0.00 0.00 0.00 41 1010.2
20260504004417 82 34 0.0 0.0 0.00 0.00 0.00 39 1009.9
20260504003913 83 34 0.0 0.0 0.00 0.00 0.00 41 1010.1
20260504003410 84 34 0.0 0.0 0.00 0.00 0.00 36 1010.0
20260504002906 85 34 0.0 0.0 0.00 0.00 0.00 37 1010.2
20260504002403 85 34 0.0 0.0 0.00 0.00 0.00 32 1010.2
20260504001901 87 34 0.0 0.0 0.00 0.00 0.00 24 1010.1
20260504001359 87 34 0.0 0.0 0.00 0.00 0.00 27 1010.1
20260504000854 86 35 0.0 0.0 0.00 0.00 0.00 24 1010.2
20260504000354 86 35 0.0 0.0 0.00 0.00 0.00 26 1010.2
20260503235849 85 36 0.0 0.0 0.00 0.00 0.00 32 1010.3
20260503235347 87 40 0.0 0.0 0.00 0.00 0.00 34 1010.4
20260503234844 87 41 0.0 0.0 0.00 0.00 0.00 24 1010.3
20260503234342 87 41 1.0 1.0 0.00 0.00 0.00 23 1010.5
20260503233839 88 41 0.0 0.0 0.00 0.00 0.00 28 1010.5
20260503233335 88 42 0.0 0.0 0.00 0.00 0.00 28 1010.5
20260503232832 88 42 1.0 1.0 0.00 0.00 0.00 28 1010.6
20260503232329 87 42 0.0 0.0 0.00 0.00 0.00 26 1010.6
20260503231827 88 42 0.0 0.0 0.00 0.00 0.00 25 1010.8